Regional Weather Roundup
Issued by NWS

Home | Current Version | Previous Version | Graphics & Text | Print | Product List | Glossary On
Versions: 1 2 3 4 5 6 7 8 9 10 11 12 13 14 15 16 17 18 19 20 21 22 23 24 25 26 27 28
000
ASUS45 KPSR 202310
RWRAZ

ARIZONA HOURLY REGIONAL WEATHER ROUNDUP
NATIONAL WEATHER SERVICE PHOENIX AZ
400 PM MST SAT JAN 20 2018

NOTE: FAIR INDICATES FEW OR NO CLOUDS BELOW 12,000 FEET WITH NO
SIGNIFICANT WEATHER AND/OR OBSTRUCTIONS TO VISIBILITY.

AZZ001>003-036-210000-
NORTHWEST ARIZONA

CITY           SKY/WX    TMP DP  RH WIND       PRES   REMARKS
BULLHEAD CITY  CLOUDY    59  28  31 VRB7      29.87R
KINGMAN        LGT RAIN  43  35  73 W18       29.87R
$$

AZZ004>008-015-016-018-210000-
NORTH CENTRAL ARIZONA

CITY           SKY/WX    TMP DP  RH WIND       PRES   REMARKS
GRAND CANYON   MOSUNNY   35  18  49 SW22G32   29.77S WCI  23
WILLIAMS       PTSUNNY   32  21  64 SW16G25   29.79R WCI  21
PRESCOTT       PTSUNNY   40  23  50 SW18G25   29.85R WCI  31
FLAGSTAFF      LGT SNOW  30  26  85 W13G18    29.80S FOG     WCI  20
PAYSON         CLOUDY    39  27  60 SW10      29.87R WCI  32
PAGE           MOSUNNY   51  23  33 S13G22    29.70F
$$

AZZ009>014-017-210000-
NORTHEAST ARIZONA

CITY           SKY/WX    TMP DP  RH WIND       PRES   REMARKS
WINSLOW        CLOUDY    37  31  78 S15       29.84F WCI  28
SAINT JOHNS    CLOUDY    44  33  65 SW22G29   29.81R
WINDOW ROCK    CLOUDY    45  28  51 SW22G37   29.78S
SHOW LOW       LGT SNOW  34  32  93 S12       29.85S VSB 3/4 WCI  25
$$

AZZ540-542>544-546-548-210000-
GREATER PHOENIX AREA

CITY           SKY/WX    TMP DP  RH WIND       PRES   REMARKS
PHOENIX        PTSUNNY   60  31  33 W8        29.88R
BUCKEYE        PTSUNNY   59  28  31 SW12      29.88F
LUKE AFB       FAIR      61  29  29 SW13      29.86S
DEER VALLEY    CLOUDY    58  29  33 SW9       29.87S
SCOTTSDALE     CLOUDY    57  31  37 SW7       29.89S
MESA-FALCON    PTSUNNY   55  43  62 SE6       29.90S
MESA-GATEWAY   PTSUNNY   54  45  71 E8        29.91F
CHANDLER       PTSUNNY   57  39  51 NE7       29.89F
$$

AZZ539-553-210000-
SOUTHWEST MARICOPA COUNTY AND PINAL COUNTY

CITY           SKY/WX    TMP DP  RH WIND       PRES   REMARKS
CASA GRANDE    NOT AVBL
GILA BEND      PTSUNNY   62  28  26 SW17G28   29.89F
$$

AZZ503-504-507>509-210000-
SOUTHEAST ARIZONA

CITY           SKY/WX    TMP DP  RH WIND       PRES   REMARKS
TUCSON         CLOUDY    50  39  66 W21G33    29.91R
DAVIS-MONTHAN  RAIN      49  37  63 NW21G31   29.90R
RYAN FIELD     CLOUDY    46  39  76 MISG      29.95R
NOGALES        PTSUNNY   59  35  40 SW21G33   29.89S
SIERRA VISTA   PTSUNNY   58  27  30 SW24G32   29.89S
DOUGLAS        CLOUDY    63  26  24 S17       29.87F
SAFFORD        PTSUNNY   64  31  28 NW18G31   29.79R
$$

AZZ532-210000-
SOUTHWEST ARIZONA

CITY           SKY/WX    TMP DP  RH WIND       PRES   REMARKS
YUMA           SUNNY     63  28  26 W20       29.95R
$$

CAZ041-043-047-048-061-525>527-560>570-210000-
SOUTHERN CALIFORNIA

CITY           SKY/WX    TMP DP  RH WIND       PRES   REMARKS
DOWNTOWN L.A.  SUNNY     61  25  25 N7        30.03R
L.A. AIRPORT   MOSUNNY   62  38  40 W20       30.04S
SAN DIEGO      MOSUNNY   61  39  44 W14       30.07R
BURBANK        SUNNY     59  25  27 NW15      30.01S
ONTARIO        MOSUNNY   60  26  27 W10       29.98S
RIVERSIDE      MOSUNNY   60  29  30 W15       29.99S
PALM SPRINGS   MOSUNNY   65  23  20 MISG      29.95S
EL CENTRO NAS  MOSUNNY   66  22  18 W24       29.97R
IMPERIAL       MOSUNNY   65  25  22 NW15      29.94R
BLYTHE         PTSUNNY   59  31  34 S8        29.93S
NEEDLES        CLOUDY    61  26  26 NW16G28   29.88R
$$

NVZ020-UTZ003-210000-
SOUTHERN NEVADA-UTAH

CITY           SKY/WX    TMP DP  RH WIND       PRES   REMARKS
LAS VEGAS      CLOUDY    50  27  40 NW16G29   29.89R
SALT LAKE CITY CLOUDY    34  30  85 N9        29.87R WCI  27
$$

NMZ009-TXZ055-210000-
NEW MEXICO-WEST TEXAS

CITY           SKY/WX    TMP DP  RH WIND       PRES   REMARKS
ALBUQUERQUE    PTSUNNY   60  16  18 SW12      29.80F
EL PASO        MOSUNNY   69  21  16 SW13      29.86F
$$


........................KEY........................
SKY/WX - SKY CONDITION/WEATHER
TMP    - TEMPERATURE IN FAHRENHEIT
DP     - DEW POINT IN FAHRENHEIT
RH     - RELATIVE HUMIDITY IN PERCENT
WIND   - DIRECTION AND SPEED IN MILES PER HOUR (MPH)
VRB    - VARIABLE WIND DIRECTION
PRES   - MEAN SEA LEVEL PRESSURE IN INCHES OF MERCURY
         F - FALLING PRESSURE   R - RISING PRESSURE
         S - STEADY PRESSURE
VSB    - VISIBILITY IN MILES
HX     - HEAT INDEX IN FAHRENHEIT
WCI    - WIND CHILL INDEX IN FAHRENHEIT
TC     - TEMPERATURE IN CELSIUS WHICH IS ALSO KNOWN AS
         TEMPERATURE IN CENTIGRADE
AFB    - AIR FORCE BASE
         LUKE AFB IS LUKE AIR FORCE BASE
         DAVIS-MONTHAN IS DAVIS-MONTHAN AIR FORCE BASE
NAS    - NAVAL AIR STATION
         EL CENTRO NAS IS EL CENTRO NAVAL AIR STATION
N/A    - NOT AVAILABLE





USA.gov is the U.S. government's official web portal to all federal, state and local government web resources and services.